| time (UTC) | temp F | wind direction | speed MPH | gust MPH | rain 1hr in | rain 24hr in | rain mn in | humidity % | barometer mb |
| 20260507022745 | 59 | 292 | 1.0 | 1.0 | 0.00 | 0.00 | 0.00 | 53 | 1017.8 |
| 20260507022243 | 59 | 0 | 0.0 | 0.0 | 0.00 | 0.00 | 0.00 | 53 | 1017.8 |
| 20260507021743 | 59 | 0 | 0.0 | 0.0 | 0.00 | 0.00 | 0.00 | 53 | 1017.7 |
| 20260507021243 | 60 | 4 | 1.0 | 1.0 | 0.00 | 0.00 | 0.00 | 52 | 1017.6 |
| 20260507020746 | 60 | 0 | 0.0 | 0.0 | 0.00 | 0.00 | 0.00 | 51 | 1017.6 |
| 20260507020245 | 60 | 0 | 0.0 | 0.0 | 0.00 | 0.00 | 0.00 | 51 | 1017.5 |
| 20260507015745 | 60 | 0 | 2.0 | 3.0 | 0.00 | 0.00 | 0.00 | 50 | 1017.5 |
| 20260507015245 | 60 | 5 | 2.0 | 2.0 | 0.00 | 0.00 | 0.00 | 50 | 1017.4 |
| 20260507014743 | 60 | 10 | 1.0 | 1.0 | 0.00 | 0.00 | 0.00 | 49 | 1017.3 |
| 20260507014245 | 61 | 359 | 3.0 | 3.0 | 0.00 | 0.00 | 0.00 | 49 | 1017.2 |
| 20260507013745 | 61 | 33 | 2.0 | 2.0 | 0.00 | 0.00 | 0.00 | 49 | 1017.0 |
| 20260507013245 | 61 | 19 | 2.0 | 2.0 | 0.00 | 0.00 | 0.00 | 49 | 1017.0 |
| 20260507012744 | 61 | 5 | 1.0 | 2.0 | 0.00 | 0.00 | 0.00 | 48 | 1016.9 |
| 20260507012245 | 61 | 8 | 2.0 | 3.0 | 0.00 | 0.00 | 0.00 | 48 | 1016.9 |
| 20260507011747 | 62 | 34 | 2.0 | 3.0 | 0.00 | 0.00 | 0.00 | 48 | 1016.9 |
| 20260507011243 | 62 | 2 | 2.0 | 2.0 | 0.00 | 0.00 | 0.00 | 48 | 1016.9 |
| 20260507010743 | 62 | 6 | 2.0 | 3.0 | 0.00 | 0.00 | 0.00 | 48 | 1016.8 |
| 20260507010244 | 62 | 7 | 3.0 | 3.0 | 0.00 | 0.00 | 0.00 | 48 | 1016.8 |
| 20260507005745 | 62 | 20 | 2.0 | 2.0 | 0.00 | 0.00 | 0.00 | 47 | 1016.8 |
| 20260507005243 | 62 | 24 | 2.0 | 2.0 | 0.00 | 0.00 | 0.00 | 47 | 1016.8 |
| 20260507004745 | 62 | 17 | 1.0 | 2.0 | 0.00 | 0.00 | 0.00 | 47 | 1016.7 |
| 20260507004243 | 63 | 9 | 2.0 | 3.0 | 0.00 | 0.00 | 0.00 | 47 | 1016.7 |
| 20260507003745 | 63 | 27 | 0.0 | 1.0 | 0.00 | 0.00 | 0.00 | 47 | 1016.7 |
| 20260507003247 | 63 | 355 | 1.0 | 2.0 | 0.00 | 0.00 | 0.00 | 47 | 1016.6 |
| 20260507002744 | 63 | 8 | 1.0 | 1.0 | 0.00 | 0.00 | 0.00 | 47 | 1016.6 |
| 20260507002244 | 63 | 10 | 2.0 | 2.0 | 0.00 | 0.00 | 0.00 | 48 | 1016.6 |
| 20260507001744 | 63 | 0 | 2.0 | 3.0 | 0.00 | 0.00 | 0.00 | 48 | 1016.5 |
| 20260507001245 | 63 | 334 | 0.0 | 1.0 | 0.00 | 0.00 | 0.00 | 48 | 1016.5 |
| 20260507000745 | 63 | 1 | 1.0 | 1.0 | 0.00 | 0.00 | 0.00 | 48 | 1016.4 |
| 20260507000245 | 64 | 348 | 2.0 | 3.0 | 0.00 | 0.00 | 0.00 | 48 | 1016.4 |
| 20260506235745 | 64 | 16 | 2.0 | 2.0 | 0.00 | 0.00 | 0.00 | 47 | 1016.4 |
| 20260506235244 | 64 | 17 | 2.0 | 4.0 | 0.00 | 0.00 | 0.00 | 47 | 1016.4 |
| 20260506234744 | 64 | 24 | 1.0 | 2.0 | 0.00 | 0.00 | 0.00 | 47 | 1016.3 |
| 20260506234243 | 64 | 21 | 2.0 | 2.0 | 0.00 | 0.00 | 0.00 | 47 | 1016.3 |
| 20260506233744 | 64 | 358 | 2.0 | 2.0 | 0.00 | 0.00 | 0.00 | 47 | 1016.2 |
| 20260506233246 | 64 | 3 | 3.0 | 5.0 | 0.00 | 0.00 | 0.00 | 47 | 1016.2 |
| 20260506232744 | 64 | 12 | 2.0 | 4.0 | 0.00 | 0.00 | 0.00 | 46 | 1016.1 |
| 20260506232245 | 64 | 165 | 1.0 | 2.0 | 0.00 | 0.00 | 0.00 | 47 | 1016.1 |
| 20260506231745 | 64 | 313 | 0.0 | 0.0 | 0.00 | 0.00 | 0.00 | 46 | 1016.1 |
| 20260506231243 | 64 | 343 | 1.0 | 2.0 | 0.00 | 0.00 | 0.00 | 46 | 1016.0 |
| 20260506230743 | 64 | 20 | 2.0 | 3.0 | 0.00 | 0.00 | 0.00 | 46 | 1016.0 |
| 20260506230245 | 64 | 4 | 2.0 | 3.0 | 0.00 | 0.00 | 0.00 | 47 | 1015.9 |
| 20260506225745 | 64 | 345 | 1.0 | 1.0 | 0.00 | 0.00 | 0.00 | 46 | 1015.9 |
| 20260506225243 | 64 | 7 | 4.0 | 6.0 | 0.00 | 0.00 | 0.00 | 47 | 1015.9 |
| 20260506224744 | 64 | 326 | 2.0 | 4.0 | 0.00 | 0.00 | 0.00 | 47 | 1015.8 |
| 20260506224244 | 64 | 346 | 2.0 | 3.0 | 0.00 | 0.00 | 0.00 | 46 | 1015.7 |
| 20260506223743 | 64 | 348 | 2.0 | 2.0 | 0.00 | 0.00 | 0.00 | 46 | 1015.7 |
| 20260506223245 | 64 | 28 | 2.0 | 2.0 | 0.00 | 0.00 | 0.00 | 46 | 1015.6 |
| 20260506222743 | 64 | 14 | 3.0 | 6.0 | 0.00 | 0.00 | 0.00 | 46 | 1015.5 |
| 20260506222244 | 64 | 32 | 3.0 | 5.0 | 0.00 | 0.00 | 0.00 | 47 | 1015.5 |
| 20260506221746 | 64 | 357 | 2.0 | 3.0 | 0.00 | 0.00 | 0.00 | 47 | 1015.4 |
| 20260506221245 | 64 | 16 | 3.0 | 5.0 | 0.00 | 0.00 | 0.00 | 47 | 1015.3 |
| 20260506220745 | 64 | 355 | 1.0 | 3.0 | 0.00 | 0.00 | 0.00 | 47 | 1015.3 |
| 20260506220245 | 64 | 359 | 4.0 | 4.0 | 0.00 | 0.00 | 0.00 | 47 | 1015.4 |
| 20260506215745 | 64 | 10 | 2.0 | 3.0 | 0.00 | 0.00 | 0.00 | 46 | 1015.5 |
| 20260506215244 | 64 | 14 | 2.0 | 4.0 | 0.00 | 0.00 | 0.00 | 46 | 1015.4 |
| 20260506214743 | 64 | 22 | 1.0 | 1.0 | 0.00 | 0.00 | 0.00 | 46 | 1015.5 |
| 20260506214244 | 64 | 10 | 1.0 | 2.0 | 0.00 | 0.00 | 0.00 | 47 | 1015.5 |
| 20260506213746 | 64 | 338 | 1.0 | 2.0 | 0.00 | 0.00 | 0.00 | 47 | 1015.6 |
| 20260506213243 | 64 | 33 | 1.0 | 2.0 | 0.00 | 0.00 | 0.00 | 49 | 1015.6 |
| 20260506212743 | 63 | 1 | 4.0 | 5.0 | 0.00 | 0.00 | 0.00 | 48 | 1015.7 |
| 20260506212243 | 63 | 358 | 4.0 | 6.0 | 0.00 | 0.00 | 0.00 | 48 | 1015.8 |
| 20260506211745 | 63 | 161 | 4.0 | 5.0 | 0.00 | 0.00 | 0.00 | 49 | 1015.8 |
| 20260506211243 | 63 | 320 | 3.0 | 3.0 | 0.00 | 0.00 | 0.00 | 49 | 1015.8 |
| 20260506210743 | 63 | 113 | 2.0 | 4.0 | 0.00 | 0.00 | 0.00 | 50 | 1015.9 |
| 20260506210243 | 63 | 102 | 1.0 | 2.0 | 0.00 | 0.00 | 0.00 | 50 | 1016.0 |
| 20260506205743 | 63 | 358 | 2.0 | 3.0 | 0.00 | 0.00 | 0.00 | 50 | 1016.0 |
| 20260506205243 | 62 | 326 | 1.0 | 2.0 | 0.00 | 0.00 | 0.00 | 50 | 1016.0 |
| 20260506204745 | 62 | 348 | 3.0 | 4.0 | 0.00 | 0.00 | 0.00 | 50 | 1016.1 |
| 20260506204243 | 63 | 24 | 2.0 | 2.0 | 0.00 | 0.00 | 0.00 | 50 | 1016.1 |
| 20260506203745 | 62 | 4 | 2.0 | 2.0 | 0.00 | 0.00 | 0.00 | 51 | 1016.1 |
| 20260506203243 | 62 | 0 | 3.0 | 4.0 | 0.00 | 0.00 | 0.00 | 52 | 1016.2 |
| 20260506202745 | 62 | 357 | 3.0 | 4.0 | 0.00 | 0.00 | 0.00 | 52 | 1016.3 |
| 20260506202244 | 62 | 9 | 2.0 | 3.0 | 0.00 | 0.00 | 0.00 | 52 | 1016.3 |
| 20260506201746 | 62 | 359 | 2.0 | 2.0 | 0.00 | 0.00 | 0.00 | 53 | 1016.4 |
| 20260506201243 | 62 | 23 | 2.0 | 5.0 | 0.00 | 0.00 | 0.00 | 52 | 1016.4 |
| 20260506200743 | 62 | 13 | 3.0 | 5.0 | 0.00 | 0.00 | 0.00 | 52 | 1016.4 |
| 20260506200243 | 62 | 358 | 2.0 | 3.0 | 0.00 | 0.00 | 0.00 | 53 | 1016.4 |
| 20260506195743 | 62 | 349 | 3.0 | 4.0 | 0.00 | 0.00 | 0.00 | 52 | 1016.4 |
| 20260506195245 | 62 | 2 | 3.0 | 4.0 | 0.00 | 0.00 | 0.00 | 52 | 1016.4 |
| 20260506194745 | 61 | 23 | 1.0 | 2.0 | 0.00 | 0.00 | 0.00 | 54 | 1016.4 |
| 20260506194244 | 61 | 4 | 2.0 | 3.0 | 0.00 | 0.00 | 0.00 | 54 | 1016.5 |
| 20260506193745 | 61 | 31 | 2.0 | 2.0 | 0.00 | 0.00 | 0.00 | 55 | 1016.5 |
| 20260506193247 | 61 | 351 | 2.0 | 2.0 | 0.00 | 0.00 | 0.00 | 54 | 1016.6 |
| 20260506192745 | 60 | 2 | 2.0 | 2.0 | 0.00 | 0.00 | 0.00 | 55 | 1016.7 |
| 20260506192245 | 60 | 355 | 2.0 | 2.0 | 0.00 | 0.00 | 0.00 | 55 | 1016.8 |
| 20260506191746 | 61 | 1 | 2.0 | 3.0 | 0.00 | 0.00 | 0.00 | 54 | 1016.8 |
| 20260506191245 | 61 | 2 | 3.0 | 3.0 | 0.00 | 0.00 | 0.00 | 55 | 1016.8 |
| 20260506190744 | 61 | 10 | 2.0 | 2.0 | 0.00 | 0.00 | 0.00 | 55 | 1016.8 |
| 20260506190245 | 60 | 357 | 3.0 | 4.0 | 0.00 | 0.00 | 0.00 | 54 | 1016.9 |
| 20260506185747 | 60 | 13 | 2.0 | 2.0 | 0.00 | 0.00 | 0.00 | 55 | 1016.9 |
| 20260506185243 | 60 | 6 | 2.0 | 3.0 | 0.00 | 0.00 | 0.00 | 54 | 1016.9 |
| 20260506184745 | 60 | 4 | 2.0 | 3.0 | 0.00 | 0.00 | 0.00 | 54 | 1016.8 |
| 20260506184246 | 60 | 5 | 2.0 | 3.0 | 0.00 | 0.00 | 0.00 | 55 | 1016.9 |
| 20260506183743 | 60 | 47 | 1.0 | 2.0 | 0.00 | 0.00 | 0.00 | 55 | 1016.9 |
| 20260506183245 | 60 | 13 | 3.0 | 4.0 | 0.00 | 0.00 | 0.00 | 55 | 1017.2 |
| 20260506182748 | 60 | 24 | 2.0 | 3.0 | 0.00 | 0.00 | 0.00 | 55 | 1017.2 |
| 20260506182243 | 60 | 23 | 2.0 | 3.0 | 0.00 | 0.00 | 0.00 | 55 | 1017.2 |
| 20260506181746 | 60 | 9 | 4.0 | 5.0 | 0.00 | 0.00 | 0.00 | 54 | 1017.3 |
| 20260506181244 | 60 | 353 | 2.0 | 3.0 | 0.00 | 0.00 | 0.00 | 54 | 1017.3 |
| 20260506180743 | 60 | 8 | 2.0 | 3.0 | 0.00 | 0.00 | 0.00 | 55 | 1017.3 |
| 20260506180246 | 60 | 11 | 1.0 | 2.0 | 0.00 | 0.00 | 0.00 | 55 | 1017.3 |
| 20260506175746 | 60 | 15 | 2.0 | 4.0 | 0.00 | 0.00 | 0.00 | 55 | 1017.5 |
| 20260506175244 | 60 | 29 | 2.0 | 3.0 | 0.00 | 0.00 | 0.00 | 55 | 1017.5 |
| 20260506174743 | 60 | 149 | 2.0 | 4.0 | 0.00 | 0.00 | 0.00 | 54 | 1017.4 |
| 20260506174245 | 59 | 15 | 2.0 | 3.0 | 0.00 | 0.00 | 0.00 | 57 | 1017.5 |
| 20260506173747 | 59 | 21 | 1.0 | 2.0 | 0.00 | 0.00 | 0.00 | 56 | 1017.6 |
| 20260506173246 | 60 | 18 | 2.0 | 4.0 | 0.00 | 0.00 | 0.00 | 55 | 1017.7 |
| 20260506172745 | 60 | 26 | 2.0 | 4.0 | 0.00 | 0.00 | 0.00 | 55 | 1017.6 |
| 20260506172244 | 60 | 68 | 3.0 | 6.0 | 0.00 | 0.00 | 0.00 | 55 | 1017.5 |
| 20260506171746 | 60 | 45 | 3.0 | 6.0 | 0.00 | 0.00 | 0.00 | 53 | 1017.6 |
| 20260506171243 | 59 | 0 | 3.0 | 5.0 | 0.00 | 0.00 | 0.00 | 54 | 1017.5 |
| 20260506170747 | 60 | 149 | 5.0 | 8.0 | 0.00 | 0.00 | 0.00 | 53 | 1017.6 |
| 20260506170244 | 59 | 24 | 2.0 | 5.0 | 0.00 | 0.00 | 0.00 | 53 | 1017.5 |
| 20260506165743 | 59 | 195 | 3.0 | 6.0 | 0.00 | 0.00 | 0.00 | 55 | 1017.5 |
| 20260506165246 | 59 | 3 | 3.0 | 5.0 | 0.00 | 0.00 | 0.00 | 54 | 1017.6 |
| 20260506164745 | 60 | 186 | 4.0 | 6.0 | 0.00 | 0.00 | 0.00 | 54 | 1017.6 |
| 20260506164243 | 59 | 118 | 3.0 | 7.0 | 0.00 | 0.00 | 0.00 | 54 | 1017.8 |
| 20260506163744 | 59 | 40 | 1.0 | 2.0 | 0.00 | 0.00 | 0.00 | 55 | 1017.7 |
| 20260506163243 | 58 | 156 | 4.0 | 9.0 | 0.00 | 0.00 | 0.00 | 55 | 1017.9 |
| 20260506162746 | 58 | 15 | 2.0 | 4.0 | 0.00 | 0.00 | 0.00 | 56 | 1017.8 |
| 20260506162245 | 57 | 19 | 2.0 | 4.0 | 0.00 | 0.00 | 0.00 | 58 | 1017.8 |
| 20260506161746 | 57 | 134 | 3.0 | 7.0 | 0.00 | 0.00 | 0.00 | 58 | 1017.9 |
| 20260506161246 | 57 | 84 | 2.0 | 3.0 | 0.00 | 0.00 | 0.00 | 58 | 1017.9 |
| 20260506160748 | 56 | 24 | 3.0 | 5.0 | 0.00 | 0.00 | 0.00 | 59 | 1017.8 |
| 20260506160246 | 56 | 0 | 4.0 | 5.0 | 0.00 | 0.00 | 0.00 | 59 | 1017.7 |
| 20260506155746 | 56 | 6 | 2.0 | 4.0 | 0.00 | 0.00 | 0.00 | 60 | 1017.7 |
| 20260506155244 | 56 | 12 | 4.0 | 6.0 | 0.00 | 0.00 | 0.00 | 60 | 1017.7 |
| 20260506154744 | 55 | 7 | 3.0 | 5.0 | 0.00 | 0.00 | 0.00 | 61 | 1017.7 |
| 20260506154243 | 55 | 17 | 1.0 | 2.0 | 0.00 | 0.00 | 0.00 | 62 | 1017.7 |
| 20260506153744 | 55 | 16 | 4.0 | 6.0 | 0.00 | 0.00 | 0.00 | 62 | 1017.5 |
| 20260506153247 | 55 | 349 | 3.0 | 6.0 | 0.00 | 0.00 | 0.00 | 63 | 1017.5 |
| 20260506152743 | 55 | 4 | 4.0 | 6.0 | 0.00 | 0.00 | 0.00 | 62 | 1017.6 |
| 20260506152243 | 55 | 36 | 1.0 | 3.0 | 0.00 | 0.00 | 0.00 | 64 | 1017.5 |
| 20260506151744 | 54 | 29 | 2.0 | 3.0 | 0.00 | 0.00 | 0.00 | 65 | 1017.6 |
| 20260506151244 | 54 | 25 | 2.0 | 4.0 | 0.00 | 0.00 | 0.00 | 66 | 1017.6 |
| 20260506150744 | 53 | 0 | 2.0 | 4.0 | 0.00 | 0.00 | 0.00 | 67 | 1017.6 |
| 20260506150248 | 53 | 146 | 2.0 | 4.0 | 0.00 | 0.00 | 0.00 | 69 | 1017.6 |
| 20260506145745 | 53 | 0 | 3.0 | 4.0 | 0.00 | 0.00 | 0.00 | 70 | 1017.6 |
| 20260506145245 | 52 | 2 | 2.0 | 3.0 | 0.00 | 0.00 | 0.00 | 71 | 1017.5 |
| 20260506144744 | 51 | 75 | 1.0 | 2.0 | 0.00 | 0.00 | 0.00 | 73 | 1017.5 |
| 20260506144244 | 51 | 11 | 3.0 | 6.0 | 0.00 | 0.00 | 0.00 | 74 | 1017.3 |
| 20260506143745 | 51 | 7 | 3.0 | 5.0 | 0.00 | 0.00 | 0.00 | 74 | 1017.0 |
| 20260506143245 | 51 | 56 | 2.0 | 2.0 | 0.00 | 0.00 | 0.00 | 75 | 1016.9 |
| 20260506142744 | 51 | 4 | 1.0 | 2.0 | 0.00 | 0.00 | 0.00 | 76 | 1017.0 |
| 20260506142244 | 50 | 353 | 3.0 | 4.0 | 0.00 | 0.00 | 0.00 | 75 | 1017.0 |
| 20260506141745 | 50 | 10 | 4.0 | 5.0 | 0.00 | 0.00 | 0.00 | 75 | 1017.0 |
| 20260506141244 | 50 | 355 | 4.0 | 5.0 | 0.00 | 0.00 | 0.00 | 75 | 1017.2 |
| 20260506140744 | 50 | 12 | 3.0 | 5.0 | 0.00 | 0.00 | 0.00 | 75 | 1017.2 |
| 20260506140245 | 50 | 26 | 2.0 | 4.0 | 0.00 | 0.00 | 0.00 | 76 | 1017.0 |
| 20260506135745 | 50 | 57 | 1.0 | 3.0 | 0.00 | 0.00 | 0.00 | 77 | 1017.3 |
| 20260506135244 | 50 | 359 | 4.0 | 6.0 | 0.00 | 0.00 | 0.00 | 77 | 1017.2 |
| 20260506134743 | 50 | 23 | 2.0 | 3.0 | 0.00 | 0.00 | 0.00 | 78 | 1017.3 |
| 20260506134245 | 50 | 15 | 3.0 | 3.0 | 0.00 | 0.00 | 0.00 | 78 | 1017.3 |
| 20260506133744 | 50 | 13 | 2.0 | 3.0 | 0.00 | 0.00 | 0.00 | 78 | 1017.3 |
| 20260506133244 | 50 | 3 | 4.0 | 5.0 | 0.00 | 0.00 | 0.00 | 78 | 1017.4 |
| 20260506132746 | 50 | 327 | 2.0 | 4.0 | 0.00 | 0.00 | 0.00 | 78 | 1017.5 |
| 20260506132247 | 49 | 8 | 1.0 | 2.0 | 0.00 | 0.00 | 0.00 | 79 | 1017.4 |
| 20260506131744 | 49 | 350 | 3.0 | 4.0 | 0.00 | 0.00 | 0.00 | 79 | 1017.4 |
| 20260506131245 | 49 | 5 | 3.0 | 4.0 | 0.00 | 0.00 | 0.00 | 79 | 1017.3 |
| 20260506130745 | 49 | 299 | 2.0 | 3.0 | 0.00 | 0.00 | 0.00 | 80 | 1017.2 |
| 20260506130244 | 50 | 358 | 4.0 | 4.0 | 0.00 | 0.00 | 0.00 | 80 | 1017.3 |
| 20260506125743 | 50 | 336 | 2.0 | 2.0 | 0.00 | 0.00 | 0.00 | 80 | 1017.2 |
| 20260506125245 | 49 | 309 | 2.0 | 2.0 | 0.00 | 0.00 | 0.00 | 80 | 1017.0 |
| 20260506124743 | 49 | 301 | 1.0 | 2.0 | 0.00 | 0.00 | 0.00 | 81 | 1017.0 |
| 20260506124244 | 49 | 357 | 2.0 | 3.0 | 0.00 | 0.00 | 0.00 | 81 | 1017.2 |
| 20260506123744 | 49 | 357 | 2.0 | 2.0 | 0.00 | 0.00 | 0.00 | 82 | 1016.9 |
| 20260506123243 | 49 | 162 | 1.0 | 1.0 | 0.00 | 0.00 | 0.00 | 82 | 1016.7 |
| 20260506122743 | 49 | 352 | 1.0 | 2.0 | 0.00 | 0.00 | 0.00 | 82 | 1016.5 |
| 20260506122244 | 49 | 354 | 3.0 | 5.0 | 0.00 | 0.00 | 0.00 | 81 | 1016.5 |
| 20260506121744 | 49 | 296 | 2.0 | 2.0 | 0.00 | 0.00 | 0.00 | 82 | 1016.5 |
| 20260506121245 | 49 | 0 | 2.0 | 3.0 | 0.00 | 0.00 | 0.00 | 81 | 1016.2 |
| 20260506120744 | 49 | 322 | 1.0 | 3.0 | 0.00 | 0.00 | 0.00 | 81 | 1016.1 |
| 20260506120254 | 49 | 358 | 2.0 | 4.0 | 0.00 | 0.00 | 0.00 | 81 | 1016.0 |
| 20260506115745 | 49 | 351 | 2.0 | 2.0 | 0.00 | 0.00 | 0.00 | 81 | 1016.0 |
| 20260506115244 | 49 | 4 | 2.0 | 3.0 | 0.00 | 0.00 | 0.00 | 82 | 1016.1 |
| 20260506114255 | 49 | 359 | 2.0 | 2.0 | 0.00 | 0.00 | 0.00 | 81 | 1016.1 |
| 20260506113746 | 49 | 343 | 2.0 | 2.0 | 0.00 | 0.00 | 0.00 | 81 | 1016.0 |
| 20260506113246 | 49 | 357 | 2.0 | 2.0 | 0.00 | 0.00 | 0.00 | 81 | 1015.9 |
| 20260506112745 | 49 | 332 | 1.0 | 2.0 | 0.00 | 0.00 | 0.00 | 81 | 1015.9 |
| 20260506112247 | 49 | 358 | 2.0 | 3.0 | 0.00 | 0.00 | 0.00 | 81 | 1015.8 |
| 20260506111745 | 49 | 19 | 1.0 | 2.0 | 0.00 | 0.00 | 0.00 | 80 | 1015.6 |
| 20260506111245 | 49 | 359 | 2.0 | 2.0 | 0.00 | 0.00 | 0.00 | 80 | 1015.7 |
| 20260506110743 | 49 | 0 | 1.0 | 2.0 | 0.00 | 0.00 | 0.00 | 80 | 1015.7 |
| 20260506110246 | 49 | 351 | 2.0 | 3.0 | 0.00 | 0.00 | 0.00 | 80 | 1015.6 |
| 20260506105745 | 49 | 5 | 1.0 | 2.0 | 0.00 | 0.00 | 0.00 | 80 | 1015.5 |
| 20260506105245 | 49 | 345 | 2.0 | 2.0 | 0.00 | 0.00 | 0.00 | 79 | 1015.6 |
| 20260506104746 | 49 | 340 | 2.0 | 2.0 | 0.00 | 0.00 | 0.00 | 79 | 1015.8 |
| 20260506104245 | 50 | 355 | 2.0 | 2.0 | 0.00 | 0.00 | 0.00 | 78 | 1016.1 |
| 20260506103745 | 50 | 8 | 2.0 | 3.0 | 0.00 | 0.00 | 0.00 | 78 | 1016.4 |
| 20260506103247 | 50 | 269 | 1.0 | 2.0 | 0.00 | 0.00 | 0.00 | 78 | 1016.5 |
| 20260506102747 | 49 | 162 | 1.0 | 1.0 | 0.00 | 0.00 | 0.00 | 78 | 1016.4 |
| 20260506102244 | 50 | 308 | 1.0 | 2.0 | 0.00 | 0.00 | 0.00 | 77 | 1016.1 |
| 20260506101746 | 50 | 354 | 2.0 | 2.0 | 0.00 | 0.00 | 0.00 | 77 | 1015.9 |
| 20260506101246 | 50 | 341 | 2.0 | 2.0 | 0.00 | 0.00 | 0.00 | 77 | 1016.0 |
| 20260506100745 | 50 | 177 | 1.0 | 1.0 | 0.00 | 0.00 | 0.00 | 78 | 1016.0 |
| 20260506100244 | 50 | 357 | 0.0 | 1.0 | 0.00 | 0.00 | 0.00 | 77 | 1016.1 |
| 20260506095743 | 50 | 340 | 1.0 | 2.0 | 0.00 | 0.00 | 0.00 | 77 | 1016.0 |
| 20260506095247 | 50 | 21 | 1.0 | 2.0 | 0.00 | 0.00 | 0.00 | 77 | 1015.9 |
| 20260506094743 | 50 | 22 | 1.0 | 1.0 | 0.00 | 0.00 | 0.00 | 77 | 1015.8 |
| 20260506094245 | 50 | 240 | 1.0 | 1.0 | 0.00 | 0.00 | 0.00 | 77 | 1015.6 |
| 20260506093748 | 50 | 350 | 1.0 | 1.0 | 0.00 | 0.00 | 0.00 | 77 | 1015.4 |
| 20260506093245 | 50 | 341 | 2.0 | 2.0 | 0.00 | 0.00 | 0.00 | 77 | 1015.0 |
| 20260506092745 | 50 | 3 | 1.0 | 2.0 | 0.00 | 0.00 | 0.00 | 76 | 1015.2 |
| 20260506092244 | 50 | 16 | 1.0 | 2.0 | 0.00 | 0.00 | 0.00 | 76 | 1015.0 |
| 20260506091746 | 50 | 338 | 1.0 | 1.0 | 0.00 | 0.00 | 0.00 | 76 | 1015.0 |
| 20260506091247 | 50 | 253 | 1.0 | 1.0 | 0.00 | 0.00 | 0.00 | 75 | 1014.9 |
| 20260506090747 | 50 | 355 | 2.0 | 2.0 | 0.00 | 0.00 | 0.00 | 75 | 1015.0 |
| 20260506090244 | 50 | 355 | 2.0 | 2.0 | 0.00 | 0.00 | 0.00 | 74 | 1014.7 |
| 20260506085746 | 50 | 264 | 1.0 | 2.0 | 0.00 | 0.00 | 0.00 | 74 | 1014.8 |
| 20260506085243 | 50 | 349 | 2.0 | 2.0 | 0.00 | 0.00 | 0.00 | 74 | 1014.8 |
| 20260506084745 | 50 | 318 | 1.0 | 2.0 | 0.00 | 0.00 | 0.00 | 74 | 1014.7 |
| 20260506084246 | 50 | 355 | 2.0 | 2.0 | 0.00 | 0.00 | 0.00 | 74 | 1014.8 |
| 20260506083744 | 50 | 309 | 1.0 | 2.0 | 0.00 | 0.00 | 0.00 | 74 | 1014.7 |
| 20260506083245 | 50 | 344 | 1.0 | 2.0 | 0.00 | 0.00 | 0.00 | 73 | 1014.6 |
| 20260506082743 | 50 | 0 | 2.0 | 3.0 | 0.00 | 0.00 | 0.00 | 73 | 1014.4 |
| 20260506082243 | 50 | 18 | 1.0 | 2.0 | 0.00 | 0.00 | 0.00 | 73 | 1014.0 |
| 20260506081259 | 50 | 353 | 3.0 | 4.0 | 0.00 | 0.00 | 0.00 | 73 | 1013.9 |
| 20260506080745 | 50 | 312 | 1.0 | 2.0 | 0.00 | 0.00 | 0.00 | 73 | 1013.9 |
| 20260506080245 | 50 | 325 | 1.0 | 2.0 | 0.00 | 0.00 | 0.00 | 73 | 1013.8 |
| 20260506073243 | 50 | 346 | 2.0 | 3.0 | 0.00 | 0.00 | 0.00 | 72 | 1013.6 |
| 20260506072749 | 50 | 0 | 2.0 | 4.0 | 0.00 | 0.00 | 0.00 | 72 | 1013.5 |
| 20260506072243 | 50 | 349 | 2.0 | 2.0 | 0.00 | 0.00 | 0.00 | 72 | 1013.4 |
| 20260506071743 | 50 | 28 | 2.0 | 4.0 | 0.00 | 0.00 | 0.00 | 72 | 1013.3 |
| 20260506071245 | 50 | 342 | 3.0 | 4.0 | 0.00 | 0.00 | 0.00 | 72 | 1013.2 |
| 20260506070745 | 50 | 12 | 2.0 | 2.0 | 0.00 | 0.00 | 0.00 | 72 | 1013.3 |
| 20260506070243 | 50 | 9 | 1.0 | 2.0 | 0.00 | 0.00 | 0.00 | 72 | 1013.4 |
| 20260506062243 | 50 | 317 | 1.0 | 2.0 | 0.00 | 0.00 | 0.00 | 71 | 1013.6 |
| 20260506061743 | 50 | 31 | 1.0 | 2.0 | 0.00 | 0.00 | 0.00 | 71 | 1013.5 |
| 20260506061245 | 50 | 350 | 3.0 | 4.0 | 0.00 | 0.00 | 0.00 | 70 | 1013.5 |
| 20260506060743 | 50 | 69 | 1.0 | 2.0 | 0.00 | 0.00 | 0.00 | 71 | 1013.5 |
| 20260506060245 | 50 | 33 | 1.0 | 2.0 | 0.00 | 0.00 | 0.00 | 71 | 1013.2 |
| 20260506051245 | 50 | 240 | 1.0 | 2.0 | 0.00 | 0.00 | 0.00 | 69 | 1013.2 |
| 20260506050743 | 50 | 17 | 2.0 | 2.0 | 0.00 | 0.00 | 0.00 | 68 | 1013.2 |
| 20260506050245 | 50 | 1 | 2.0 | 4.0 | 0.00 | 0.00 | 0.00 | 68 | 1013.1 |
| 20260506044743 | 50 | 350 | 3.0 | 5.0 | 0.00 | 0.00 | 0.00 | 68 | 1013.3 |
| 20260506044243 | 50 | 352 | 3.0 | 5.0 | 0.00 | 0.00 | 0.00 | 69 | 1013.4 |
| 20260506043743 | 50 | 0 | 3.0 | 4.0 | 0.00 | 0.00 | 0.00 | 70 | 1013.4 |
| 20260506043245 | 50 | 353 | 2.0 | 2.0 | 0.00 | 0.00 | 0.00 | 71 | 1013.5 |
| 20260506042743 | 50 | 352 | 2.0 | 3.0 | 0.00 | 0.00 | 0.00 | 71 | 1013.4 |
| 20260506042243 | 50 | 268 | 1.0 | 2.0 | 0.00 | 0.00 | 0.00 | 72 | 1013.3 |
| 20260506041745 | 50 | 0 | 2.0 | 4.0 | 0.00 | 0.00 | 0.00 | 72 | 1013.4 |
| 20260506041243 | 50 | 37 | 1.0 | 2.0 | 0.00 | 0.00 | 0.00 | 73 | 1013.3 |
| 20260506040743 | 50 | 14 | 2.0 | 3.0 | 0.00 | 0.00 | 0.00 | 73 | 1013.3 |
| 20260506040243 | 50 | 74 | 1.0 | 1.0 | 0.00 | 0.00 | 0.00 | 75 | 1013.4 |
| 20260506035748 | 50 | 17 | 3.0 | 4.0 | 0.00 | 0.00 | 0.00 | 75 | 1013.3 |
| 20260506035243 | 50 | 19 | 2.0 | 4.0 | 0.00 | 0.00 | 0.00 | 75 | 1013.3 |
| 20260506034744 | 50 | 354 | 2.0 | 4.0 | 0.00 | 0.00 | 0.00 | 76 | 1013.2 |
| 20260506034245 | 50 | 17 | 2.0 | 3.0 | 0.00 | 0.00 | 0.00 | 76 | 1013.3 |
| 20260506033743 | 50 | 15 | 3.0 | 3.0 | 0.00 | 0.00 | 0.00 | 77 | 1013.2 |
| 20260506033244 | 50 | 19 | 2.0 | 3.0 | 0.00 | 0.00 | 0.00 | 78 | 1013.1 |
| 20260506032744 | 50 | 11 | 2.0 | 4.0 | 0.00 | 0.00 | 0.00 | 79 | 1012.9 |
| 20260506032243 | 50 | 336 | 3.0 | 6.0 | 0.00 | 0.00 | 0.00 | 79 | 1012.6 |
| 20260506031743 | 50 | 354 | 4.0 | 6.0 | 0.00 | 0.00 | 0.00 | 80 | 1012.4 |
| 20260506031245 | 50 | 0 | 2.0 | 3.0 | 0.00 | 0.00 | 0.00 | 80 | 1012.2 |
| 20260506030747 | 50 | 358 | 4.0 | 5.0 | 0.00 | 0.00 | 0.00 | 80 | 1012.2 |
| 20260506030244 | 50 | 353 | 4.0 | 5.0 | 0.00 | 0.00 | 0.00 | 80 | 1012.2 |
| 20260506025745 | 50 | 341 | 2.0 | 4.0 | 0.00 | 0.00 | 0.00 | 80 | 1012.4 |
| 20260506025243 | 50 | 66 | 2.0 | 4.0 | 0.00 | 0.00 | 0.00 | 80 | 1012.4 |
| 20260506024746 | 50 | 8 | 3.0 | 5.0 | 0.00 | 0.00 | 0.00 | 81 | 1012.5 |
| 20260506024243 | 50 | 11 | 2.0 | 4.0 | 0.00 | 0.00 | 0.00 | 81 | 1012.5 |
| 20260506023743 | 50 | 1 | 3.0 | 4.0 | 0.00 | 0.00 | 0.00 | 81 | 1012.5 |
| 20260506023244 | 50 | 5 | 3.0 | 5.0 | 0.00 | 0.00 | 0.00 | 81 | 1012.7 |